Location: Foligno
(42.9600°N, 12.7050°E)
Time: 15:41:28
(UTC+02:00)

ISS - Pass Details

Date: 21 July 2018
Orbit: 402 x 408 km, 51.6° (Epoch: 21 July)

Event Time Altitude Azimuth Distance (km) Brightness Sun altitude
Rises 22:52:26 0° 258° (WSW) 2,314 0.3 -18.6°
Reaches altitude 10° 22:54:36 10° 268° (W) 1,458 -0.6 -18.9°
Maximum altitude 22:57:39 35° 336° (NNW) 671 -2.1 -19.2°
Drops below altitude 10° 23:00:43 10° 45° (NE) 1,466 -0.9 -19.5°
Sets 23:02:55 0° 55° (NE) 2,330 0.1 -19.7°
